www.pogodaiklimat.ru

Погода и климат >> Архив погоды >> Мексика >> Mexico City


АРХИВ ПОГОДЫ в Mexico City

Время (UTC), дата Ветер
(напр.,м/с)
 
Видим.   Явления Облачность Т
(С)
Тd
(С)
f
(%)
Тe
(С)
Тes
(С)
Комфортность P
(гПа)
Po
(гПа)
Тmin
(С)
Tmax
(С)
R
(мм)
R24
(мм)
S
(см)
00 15.02 СЗ 2 10 км дым 8/8 600 м
[Cu hum]
+22.4 +6.6 36 +23 +23 комфорт 1011.0 776.6 +9.7 +24.9
06 15.02 З 2 200 м дым 3/1 600 м
[Cu hum Cs]
+14.6 +10.2 75 +14 +14 по сезону 1013.1 779.5 +9.7 +24.9
09 15.02 СВ 1 200 м дым 3/0
[Cs]
+13.0 +10.1 83 +13 +13 тепло 1013.8 778.7
12 15.02 Ю 2 2000 м дым {туман} 1/0
[Cs]
+11.4 +9.8 90 +10 +10 по сезону 1016.6 778.9 +10.5 +24.9
15 15.02 СЗ 2 2000 м мгла 4/1 840 м
[Cu hum]
+13.4 +9.9 79 +13 +16 по сезону 1019.9 780.2
18 15.02 В 2 2000 м мгла ясно +19.8 +10.1 54 +22 +37 комфорт 1018.4 779.4 +10.5 +20.5
21 15.02 СВ 2 3000 м мгла ясно +23.2 +7.1 35 +24 +34 комфорт 1012.0 776.1
00 16.02 СВ 1 5000 м мгла {туман} ясно +23.2 +3.6 28 +23 +23 комфорт 1008.2 775.3 +10.5 +25.6
06 16.02 СЗ 3 18 км дым ясно +14.9 +5.0 52 +14 +14 по сезону 1010.8 778.3 +10.5 +25.6
09 16.02 штиль 0 18 км дым ясно +12.3 +5.1 61 +12 +12 по сезону 1011.7 777.4
12 16.02 ЮЗ 2 14 км дым ясно +11.0 +4.6 65 +10 +10 по сезону 1014.3 777.2 +10.5 +25.6
15 16.02 С 1 3000 м {метель, туман} ясно +13.8 +6.3 61 +14 +20 по сезону 1017.5 778.2
18 16.02 С 1 6000 м {метель, туман} ясно +20.1 +9.0 49 +22 +41 комфорт 1015.3 777.0 +9.6 +20.2
21 16.02 СЗ 1 8000 м {метель, туман} ясно +24.6 +8.8 37 +25 +37 комфорт 1009.9 774.5
00 17.02 СВ 1 8000 м мгла {туман} ясно +24.8 +2.9 24 +24 +24 комфорт 1005.8 773.8 +9.6 +27.2
06 17.02 З 1 12 км дым 1/0
[Ci fib]
+16.0 +7.0 55 +17 +17 тепло 1007.5 776.3 +9.6 +27.2
09 17.02 штиль 0 10 км дым ясно +13.8 +8.2 69 +14 +14 тепло 1009.1 776.0
12 17.02 ЮВ 1 5000 м дым {туман} 1/0
[Cc]
+12.0 +7.3 73 +12 +12 тепло 1012.3 776.3 +10.6 +27.2
15 17.02 СВ 1 2000 м мгла 4/0 2000 м
[As trans Cc]
+13.8 +8.0 68 +14 +19 по сезону 1016.3 778.0
18 17.02 СЗ 1 2000 м мгла 3/0 2000 м
[As trans Ci fib]
+20.4 +9.2 49 +23 +40 комфорт 1015.2 777.4 +1.0 +21.4
21 17.02 З 2 4000 м мгла 4/0 2000 м
[As trans Ci fib]
+24.4 +9.4 39 +25 +34 комфорт 1009.6 774.7
00 18.02 СЗ 4 4000 м мгла ясно +23.2 +8.3 38 +24 +24 комфорт 1006.6 774.4 +10.0 +25.7
03 18.02 СЗ 2 6000 м ясно +18.8 +8.0 49 +19 +19 тепло 1007.7 776.6
06 18.02 З 2 13 км дым ясно +15.5 +7.4 58 +15 +15 тепло 1007.6 776.1 +10.0 +25.7
09 18.02 З 2 10 км дым ясно +13.2 +5.6 60 +13 +13 тепло 1009.2 775.7
12 18.02 штиль 0 7000 м дым ясно +11.0 +5.8 70 +11 +11 по сезону 1012.2 775.9 +10.5 +25.7
15 18.02 В 1 2000 м {туман} ясно +12.4 +7.2 71 +13 +19 по сезону 1015.9 777.2
18 18.02 штиль 0 2000 м мгла 1/1 840 м
[Cu hum]
+19.8 +9.2 50 +21 +40 комфорт 1014.5 776.3 +9.6 +20.4
21 18.02 З 2 4000 м мгла 4/4 840 м
[Cu hum]
+24.0 +10.2 42 +25 +32 комфорт 1008.3 773.1
00 19.02 ЮВ 3 4000 м мгла 8/3 600 м
[Cu hum As trans]
+21.8 +12.1 54 +24 +24 комфорт 1005.2 772.8 +9.6 +25.2
03 19.02 штиль 0 4000 м мгла 6/4 840 м
[Cu hum As trans]
+18.0 +10.5 62 +18 +18 по сезону 1005.9 774.6
06 19.02 З 1 8000 м мгла 8/4 800 м
[Cu hum Ac cuf]
+16.4 +10.4 68 +17 +17 тепло 1006.6 775.0 +9.6 +25.2
09 19.02 СЗ 2 10 км дым {туман} 6/0 2000 м
[As op Ci]
+14.2 +9.7 74 +14 +14 тепло 1008.0 774.7
12 19.02 Ю 1 3000 м дым {туман} 9/0 2000 м
[Ac und]
+13.2 +8.3 72 +13 +13 тепло 1010.6 775.0 +12.5 +25.2
15 19.02 З 2 2000 м мгла 1/1 840 м
[Cu hum]
+14.2 +9.7 74 +14 +18 по сезону 1013.3 776.1
18 19.02 ЮВ 3 3000 м мгла 5/4 750 м
[Cu hum Ac cuf]
+21.0 +8.6 45 +23 +30 комфорт 1011.0 774.8 +12.5 +21.8
21 19.02 СЗ 1 2000 м мгла 9/6 750 м
[Cu hum As trans]
+22.8 +9.8 44 +25 +27 комфорт 1006.0 772.2
00 20.02 З 2 4000 м мгла 6/4 600 м
[Cu hum As trans]
+21.8 +14.2 62 +25 +25 комфорт 1004.0 772.2 +12.5 +24.1
03 20.02 Ю 2 5000 м мгла 6/6 840 м
[Cu hum As trans]
+17.4 +9.8 61 +18 +18 по сезону 1004.9 773.7
06 20.02 ЮЗ 3 13 км дым 5/5 600 м
[Cu med, cong]
+15.9 +10.1 68 +15 +15 тепло 1006.1 774.2 +12.5 +24.1
09 20.02 СЗ 4 11 км дым 8/8 840 м
[Cu med, cong]
+14.8 +10.2 74 +14 +14 тепло 1007.1 773.8
12 20.02 ЮЗ 3 7000 м дым 6/6 840 м
[Cu med, cong]
+13.8 +10.0 78 +13 +13 тепло 1009.6 774.3 +13.2 +24.1
15 20.02 З 3 2000 м мгла 9/5 840 м
[Cu hum Ac trans]
+15.0 +8.8 66 +14 +15 по сезону 1013.2 776.3
18 20.02 В 1 2000 м мгла 6/4 840 м
[Cu hum As trans]
+20.4 +11.9 58 +23 +33 комфорт 1011.6 775.5 +12.9 +21.0
21 20.02 В 2 2000 м мгла 8/6 840 м
[Cu hum Ci fib]
+23.6 +11.2 46 +25 +29 комфорт 1006.7 773.0
00 21.02 Ю 5 4000 м мгла 6/4 600 м
[Cu med, cong As trans]
+22.2 +12.0 52 +25 +25 комфорт 1005.0 773.1 +12.9 +24.3
03 21.02 ЮЗ 2 6000 м ясно +17.7 +9.6 59 +18 +18 по сезону 1006.4 775.0
06 21.02 З 3 8000 м дым 1/0
[Cs]
+15.2 +9.1 67 +15 +15 тепло 1008.5 776.2 +12.9 +24.3
09 21.02 Ю 1 6000 м дым 3/0
[Cs]
+13.6 +9.7 77 +14 +14 тепло 1010.0 775.9
12 21.02 С 1 6000 м дым 3/0
[Cs]
+12.0 +8.0 76 +12 +12 тепло 1012.6 776.0 +10.6 +24.3
15 21.02 СВ 1 3000 м мгла ясно +14.8 +8.2 65 +15 +22 по сезону 1016.3 777.9
18 21.02 СЗ 5 2000 м мгла 1/1 840 м
[Cu hum]
+21.2 +10.8 51 +23 +31 комфорт 1015.2 777.6 +10.6 +21.8
21 21.02 СВ 2 2000 м мгла 9/8 840 м
[Cu hum As trans]
+24.4 +11.1 43 +26 +27 жарко 1009.9 775.2

 

Местоположение метеостанции Mexico City (Мексика): широта 19.40 долгота -99.18 высота над уровнем моря 2303 м.

В архиве по умолчанию представлена погода в Mexico City за последнюю неделю. Архивные данные за месяц целиком и за предыдущие месяцы, начиная с января 2011 года, Вы можете получить, выбрав интересующий диапазон дат из раскрывающегося списка и нажав кнопку "Ввод!".

Внимание! Время в таблицах - всемирное. Для получения местного времени необходимо прибавить поправку, которая в Mexico City равна -6 ч.

Смотрите также архив погоды в соседних городах и на ближайших метеорологических станциях:

Погода в Institute of Geography (Мексика) (9 км)
Погода в Toluca (Мексика) (54 км)
Погода в Cuernavaca (Мексика) (58 км)
Погода в Zacatepec (Мексика) (78 км)
Погода в Pachuca (Мексика) (93 км)
Погода в Tlaxcala (Мексика) (98 км)
Погода в Tlaxcala Airport (Мексика) (99 км)
Погода в Tulancingo (Мексика) (114 км)
Погода в Puebla (Мексика) (114 км)
Погода в Queretaro (Мексика) (183 км)

Пояснения к столбцам:

Ветер - указаны скорость ветра в м/с - средняя за 10 мин, порывы в срок и между сроками (в фигурных скобках) и направление, откуда дует ветер: С - северный, СВ - северо-восточный, В - восточный, ЮВ - юго-восточный, Ю - южный, ЮЗ - юго-западный, З - западный, СЗ - северо-западный.
Видимость - горизонтальная дальность видимости в метрах или километрах. При видимости от 1 до 10 км при отсутствии осадков обычно наблюдается дымка, при ухудшении видимости до 1 км и менее - туман. В сухую погоду видимость может ухудшаться дымом, пылью или мглою.
Явления - указаны атмосферные явления, наблюдавшиеся в срок или в последний час перед сроком; фигурными скобками обозначены явления, наблюдавшиеся между сроками (за 1-3 часа до срока); квадратными скобками обозначены град или гололедные отложения с указанием их диаметра в мм.
Облачность - указаны через наклонную черту общая и нижняя облачность в баллах и высота нижней границы облаков в метрах; квадратными скобками обозначены формы облаков: Ci - перистые, Cs - перисто-слоистые, Cc - перисто-кучевые, Ac - высококучевые, As - высокослоистые, Sc - слоисто-кучевые, Ns - слоисто-дождевые, Cu - кучевые, Cb - кучево-дождевые. Подробнее классификацию облаков см. в Атласе облаков (PDF).
T - Температура воздуха - температура, измеренная на высоте 2 м над землей.
Td - Температура точки росы - температура, при понижении до которой содержащийся в воздухе водяной пар достигнет насыщения.
f - Относительная влажность воздуха - влажноcть воздуха, измеренная на высоте 2 м над землей.
Te - Эффективная температура - температура, которую ощущает одетый по сезону человек в тени. Характеристика душности погоды. При расчете учитывается влияние влажности воздуха и скорости ветра на теплоощущения человека.
Tes - Эффективная температура на солнце - температура, которую ощущает человек, с поправкой на солнечный нагрев. Характеристика знойности погоды. Зависит от высоты солнца над горизонтом, облачности и скорости ветра. Ночью, в пасмурную погоду, а также при ветре 12 м/с и более поправка равна нулю.
P - Атмосферное давление - приведенное к уровню моря атмосферное давление.
Po - Атмосферное давление - измеренное на уровне метеостанции атмосферное давление.
Tmin - Минимальная температура - минимум температуры воздуха на высоте 2 м над землей.
Tmax - Максимальная температура - максимум температуры воздуха на высоте 2 м над землей.
R - Количество осадков - Количество выпавших осадков за период времени, мм. При наведении курсора мыши на число - период времени, за который выпало указанное количество осадков.
R24 - Количество осадков - Количество выпавших осадков за 24 часа, мм.
S - Снежный покров - Высота снежного покрова, см. При наведении курсора мыши на число - состояние снежного покрова и степень покрытия местности в баллах.